Domov               UVHVVR             MKGP            O straneh              
ZDRAVSTVENO VARSTVO RASTLIN
  MREŽA AGROMET. POSTAJ
 ► PROGNOSTIČNA OBVESTILA
AGROMETEOROLOŠKI PODATKI -
ARSO
OBVLADOVANJE TVEGANJ ZARADI
NEUGODNIH VREMENSKIH RAZMER
  ► NARAVNE NESREČE
  ► SUŠA/MOČA
  ► NAMAKANJE
  ► ŽLED (gozdarstvo)
KARTOGRAFSKI PRIKAZI
SPLETNE POVEZAVE
PROJEKTI IN PUBLIKACIJE

AGROMETEOROLOŠKA MREŽA: VREMENSKE POSTAJE IN FENOLOŠKA OPAZOVANJA

Pregled podatkov za lokacijo Braslovče (Pšaker), meteorološka postaja 39323

Pregled senzorjev na lokaciji

ID Ime Zadnja
vrednost
Datum
zadnje
spremembe
Tip
senzorja
1914 Temperatura 2 m ( °C) 9,3 °C 23.8.2017 05:00 50YA
1915 Relativna vlaga 2 m (% RH) 99,41 % RH 23.8.2017 05:00 50YA
2040 Padavine 0.2 mm (mm) 0 mm 23.8.2017 05:00 Rain-O-Matic
2041 Omočenost lista (U) 10 U 23.8.2017 05:00 A730WET

Pregled podatkov zadnjih 24 ur

Zap.
št.
Datum in čas Braslovče (Pšaker)
Omočenost
lista
Padavine
0.2
mm
Relativna
vlaga
2
m
Temperatura
2
m
0 23.8.2017 04:00 10 0 99,41 9,3
1 23.8.2017 03:30 10 0 99,41 9,6
2 23.8.2017 03:00 10 0 99,29 9,72
3 23.8.2017 02:30 10 0 99,05 9,89
4 23.8.2017 02:00 10 0 98,44 10,11
5 23.8.2017 01:30 10 0 97,48 10,48
6 23.8.2017 01:00 10 0 97,53 10,65
7 23.8.2017 00:30 10 0 97,12 10,7
8 23.8.2017 00:00 10 0 95,53 11,04
9 22.8.2017 23:30 10 0 94,99 11,21
10 22.8.2017 23:00 10 0 93,21 11,58
11 22.8.2017 22:30 10 0 92,06 11,92
12 22.8.2017 22:00 10 0 90,62 12,26
13 22.8.2017 21:30 10 0 88,08 12,67
14 22.8.2017 21:00 10 0 84,81 13,19
15 22.8.2017 20:30 10 0 81,59 13,85
16 22.8.2017 20:00 10 0 79,12 14,46
17 22.8.2017 19:30 10 0 75,92 15,38
18 22.8.2017 19:00 10 0 76,46 15,95
19 22.8.2017 18:30 9 0 73,46 16,78
20 22.8.2017 18:00 5 0 70,18 17,8
21 22.8.2017 17:30 2 0 66,84 18,75
22 22.8.2017 17:00 0 0 56,19 20,78
23 22.8.2017 16:30 0 0 47,84 22,69
24 22.8.2017 16:00 0 0 43,52 22,49
25 22.8.2017 15:30 0 0 43,22 22,34
26 22.8.2017 15:00 0 0 42,05 22,44
27 22.8.2017 14:30 0 0 40,66 22,95
28 22.8.2017 14:00 0 0 40,51 22,74
29 22.8.2017 13:30 0 0 39,37 22,32
30 22.8.2017 13:00 0 0 39,51 22,15
31 22.8.2017 12:30 0 0 40,24 21,76
32 22.8.2017 12:00 0 0 41,15 21,37
33 22.8.2017 11:30 0 0 44,79 20,71
34 22.8.2017 11:00 0 0 47,69 20,22
35 22.8.2017 10:30 0 0 48,16 20,39
36 22.8.2017 10:00 0 0 49,26 20,29
37 22.8.2017 09:30 0 0 56,02 19,22
38 22.8.2017 09:00 3 0 57,9 18,32
39 22.8.2017 08:30 10 0 66,86 16,87
40 22.8.2017 08:00 10 0 79,29 14,24
41 22.8.2017 07:30 10 0 84,84 12,65
42 22.8.2017 07:00 10 0 87,74 11,09
43 22.8.2017 06:30 10 0 94,7 9,35
© 2011 Ministrstvo za kmetijstvo, gozdarstvo in prehrano. Vse pravice pridržane.